| time (UTC) | temp F | wind direction | speed MPH | gust MPH | rain 1hr in | rain 24hr in | rain mn in | humidity % | barometer mb |
| 20260506170015 | 71 | 166 | 15.0 | 36.0 | 0.00 | 0.00 | 0.00 | 59 | 1016.3 |
| 20260506164508 | 71 | 207 | 13.0 | 30.0 | 0.00 | 0.00 | 0.00 | 59 | 1016.5 |
| 20260506163010 | 70 | 197 | 18.0 | 30.0 | 0.00 | 0.00 | 0.00 | 60 | 1016.5 |
| 20260506161509 | 69 | 202 | 16.0 | 25.0 | 0.00 | 0.00 | 0.00 | 61 | 1016.5 |
| 20260506160008 | 70 | 210 | 16.0 | 25.0 | 0.00 | 0.00 | 0.00 | 62 | 1016.4 |
| 20260506154505 | 71 | 236 | 12.0 | 24.0 | 0.00 | 0.00 | 0.00 | 61 | 1016.5 |
| 20260506153004 | 70 | 211 | 14.0 | 30.0 | 0.00 | 0.00 | 0.00 | 62 | 1016.5 |
| 20260506151505 | 71 | 205 | 15.0 | 27.0 | 0.00 | 0.00 | 0.00 | 60 | 1016.6 |
| 20260506144604 | 69 | 218 | 19.0 | 26.0 | 0.00 | 0.00 | 0.00 | 64 | 1016.7 |
| 20260506143056 | 69 | 217 | 13.0 | 26.0 | 0.00 | 0.00 | 0.00 | 67 | 1016.7 |
| 20260506141602 | 68 | 160 | 18.0 | 32.0 | 0.00 | 0.00 | 0.00 | 67 | 1016.9 |
| 20260506140104 | 68 | 209 | 17.0 | 24.0 | 0.00 | 0.00 | 0.00 | 68 | 1016.7 |
| 20260506134550 | 67 | 171 | 18.0 | 27.0 | 0.00 | 0.00 | 0.00 | 70 | 1016.7 |
| 20260506133053 | 67 | 207 | 11.0 | 24.0 | 0.00 | 0.00 | 0.00 | 75 | 1016.7 |
| 20260506131547 | 66 | 226 | 18.0 | 26.0 | 0.00 | 0.00 | 0.00 | 77 | 1016.9 |
| 20260506130044 | 65 | 238 | 11.0 | 26.0 | 0.00 | 0.00 | 0.00 | 80 | 1017.0 |
| 20260506124540 | 63 | 224 | 12.0 | 26.0 | 0.00 | 0.00 | 0.00 | 82 | 1017.2 |
| 20260506123039 | 63 | 202 | 15.0 | 27.0 | 0.00 | 0.00 | 0.00 | 81 | 1016.9 |
| 20260506121538 | 63 | 212 | 15.0 | 28.0 | 0.00 | 0.00 | 0.00 | 80 | 1017.0 |
| 20260506120039 | 63 | 225 | 14.0 | 24.0 | 0.00 | 0.00 | 0.00 | 81 | 1016.9 |
| 20260506114533 | 62 | 226 | 13.0 | 22.0 | 0.00 | 0.00 | 0.00 | 81 | 1016.9 |
| 20260506113031 | 62 | 189 | 14.0 | 24.0 | 0.00 | 0.00 | 0.00 | 82 | 1016.6 |
| 20260506111529 | 61 | 182 | 11.0 | 21.0 | 0.00 | 0.00 | 0.00 | 83 | 1016.8 |
| 20260506110033 | 61 | 222 | 12.0 | 22.0 | 0.00 | 0.00 | 0.00 | 84 | 1016.5 |
| 20260506104524 | 60 | 217 | 14.0 | 25.0 | 0.00 | 0.00 | 0.00 | 85 | 1016.5 |
| 20260506103027 | 60 | 215 | 14.0 | 22.0 | 0.00 | 0.00 | 0.00 | 86 | 1016.3 |
| 20260506101528 | 59 | 222 | 10.0 | 22.0 | 0.00 | 0.00 | 0.00 | 86 | 1016.2 |
| 20260506100028 | 59 | 213 | 14.0 | 23.0 | 0.00 | 0.00 | 0.00 | 87 | 1015.8 |
| 20260506094515 | 58 | 210 | 11.0 | 22.0 | 0.00 | 0.00 | 0.00 | 88 | 1015.6 |
| 20260506093017 | 58 | 188 | 13.0 | 22.0 | 0.00 | 0.00 | 0.00 | 88 | 1015.4 |
| 20260506091510 | 57 | 201 | 12.0 | 22.0 | 0.00 | 0.00 | 0.00 | 89 | 1015.4 |
| 20260506090008 | 57 | 182 | 13.0 | 20.0 | 0.00 | 0.00 | 0.00 | 90 | 1015.0 |
| 20260506084509 | 56 | 209 | 9.0 | 19.0 | 0.00 | 0.00 | 0.00 | 89 | 1014.9 |
| 20260506083010 | 56 | 207 | 10.0 | 24.0 | 0.00 | 0.00 | 0.00 | 90 | 1015.1 |
| 20260506081506 | 56 | 210 | 9.0 | 18.0 | 0.00 | 0.00 | 0.00 | 90 | 1015.1 |
| 20260506073100 | 56 | 196 | 10.0 | 16.0 | 0.00 | 0.00 | 0.00 | 89 | 1015.3 |
| 20260506071600 | 56 | 225 | 9.0 | 17.0 | 0.00 | 0.00 | 0.00 | 89 | 1015.1 |
| 20260506061557 | 57 | 209 | 11.0 | 19.0 | 0.00 | 0.00 | 0.00 | 88 | 1015.1 |
| 20260506044553 | 57 | 203 | 12.0 | 25.0 | 0.00 | 0.00 | 0.00 | 87 | 1014.9 |
| 20260506043043 | 57 | 238 | 14.0 | 28.0 | 0.00 | 0.00 | 0.00 | 87 | 1014.7 |
| 20260506041541 | 57 | 216 | 12.0 | 25.0 | 0.00 | 0.00 | 0.00 | 87 | 1014.6 |
| 20260506040041 | 57 | 227 | 15.0 | 28.0 | 0.00 | 0.00 | 0.00 | 86 | 1014.6 |
| 20260506034535 | 56 | 223 | 16.0 | 25.0 | 0.00 | 0.00 | 0.00 | 86 | 1014.9 |
| 20260506033034 | 56 | 234 | 11.0 | 27.0 | 0.00 | 0.00 | 0.00 | 84 | 1014.6 |
| 20260506031534 | 56 | 212 | 12.0 | 26.0 | 0.00 | 0.00 | 0.00 | 83 | 1014.5 |
| 20260506030028 | 56 | 192 | 11.0 | 21.0 | 0.00 | 0.00 | 0.00 | 84 | 1014.5 |
| 20260506024530 | 56 | 221 | 13.0 | 22.0 | 0.00 | 0.00 | 0.00 | 85 | 1014.7 |
| 20260506023029 | 56 | 217 | 15.0 | 22.0 | 0.00 | 0.00 | 0.00 | 85 | 1014.7 |
| 20260506021532 | 55 | 176 | 11.0 | 18.0 | 0.00 | 0.00 | 0.00 | 86 | 1014.9 |
| 20260506020031 | 56 | 223 | 11.0 | 20.0 | 0.00 | 0.00 | 0.00 | 85 | 1014.8 |
| 20260506014525 | 56 | 205 | 12.0 | 19.0 | 0.00 | 0.00 | 0.00 | 84 | 1014.8 |
| 20260506013023 | 56 | 247 | 11.0 | 22.0 | 0.00 | 0.00 | 0.00 | 84 | 1014.6 |
| 20260506011521 | 56 | 243 | 13.0 | 23.0 | 0.00 | 0.00 | 0.00 | 83 | 1014.4 |
| 20260506010035 | 56 | 234 | 11.0 | 23.0 | 0.00 | 0.00 | 0.00 | 83 | 1013.8 |
| 20260506004516 | 56 | 205 | 9.0 | 20.0 | 0.00 | 0.00 | 0.00 | 83 | 1013.6 |
| 20260506003015 | 56 | 185 | 7.0 | 22.0 | 0.00 | 0.00 | 0.00 | 83 | 1013.5 |
| 20260506001514 | 57 | 227 | 11.0 | 22.0 | 0.00 | 0.00 | 0.00 | 82 | 1013.2 |
| 20260506000012 | 58 | 171 | 8.0 | 18.0 | 0.00 | 0.00 | 0.00 | 80 | 1012.9 |
| 20260505234530 | 59 | 212 | 10.0 | 19.0 | 0.00 | 0.00 | 0.00 | 78 | 1012.9 |
| 20260505233009 | 60 | 237 | 10.0 | 22.0 | 0.00 | 0.00 | 0.00 | 75 | 1012.4 |
| 20260505231507 | 61 | 193 | 13.0 | 21.0 | 0.00 | 0.00 | 0.00 | 72 | 1012.3 |
| 20260505230008 | 62 | 200 | 14.0 | 26.0 | 0.00 | 0.00 | 0.00 | 69 | 1012.1 |
| 20260505224506 | 63 | 231 | 15.0 | 26.0 | 0.00 | 0.00 | 0.00 | 65 | 1012.1 |
| 20260505223001 | 64 | 239 | 11.0 | 29.0 | 0.00 | 0.00 | 0.00 | 60 | 1011.7 |
| 20260505221601 | 65 | 200 | 11.0 | 25.0 | 0.00 | 0.00 | 0.00 | 56 | 1011.6 |
| 20260505220059 | 66 | 200 | 13.0 | 27.0 | 0.00 | 0.00 | 0.00 | 51 | 1011.7 |
| 20260505214624 | 68 | 185 | 9.0 | 21.0 | 0.00 | 0.00 | 0.00 | 48 | 1011.2 |
| 20260505213103 | 69 | 275 | 10.0 | 23.0 | 0.00 | 0.00 | 0.00 | 46 | 1011.3 |
| 20260505211556 | 69 | 204 | 13.0 | 20.0 | 0.00 | 0.00 | 0.00 | 44 | 1011.5 |
| 20260505204604 | 70 | 230 | 18.0 | 28.0 | 0.00 | 0.00 | 0.00 | 41 | 1011.5 |
| 20260505203056 | 71 | 270 | 11.0 | 31.0 | 0.00 | 0.00 | 0.00 | 41 | 1011.3 |
| 20260505201555 | 71 | 209 | 17.0 | 29.0 | 0.00 | 0.00 | 0.00 | 41 | 1011.7 |
| 20260505194554 | 71 | 202 | 13.0 | 26.0 | 0.00 | 0.00 | 0.00 | 44 | 1011.5 |
| 20260505193050 | 71 | 206 | 17.0 | 27.0 | 0.00 | 0.00 | 0.00 | 43 | 1011.3 |
| 20260505191544 | 72 | 182 | 20.0 | 28.0 | 0.00 | 0.00 | 0.00 | 42 | 1011.1 |
| 20260505190043 | 72 | 240 | 16.0 | 30.0 | 0.00 | 0.00 | 0.00 | 43 | 1011.1 |
| 20260505184540 | 73 | 236 | 15.0 | 29.0 | 0.00 | 0.00 | 0.00 | 42 | 1011.0 |
| 20260505183039 | 73 | 225 | 16.0 | 29.0 | 0.00 | 0.00 | 0.00 | 40 | 1010.9 |
| 20260505181540 | 74 | 238 | 13.0 | 25.0 | 0.00 | 0.00 | 0.00 | 39 | 1010.7 |
| 20260505180057 | 75 | 189 | 16.0 | 25.0 | 0.00 | 0.00 | 0.00 | 37 | 1010.7 |
| 20260505174551 | 75 | 219 | 14.0 | 27.0 | 0.00 | 0.00 | 0.00 | 39 | 1010.9 |
| 20260505173042 | 75 | 223 | 13.0 | 27.0 | 0.00 | 0.00 | 0.00 | 38 | 1011.0 |
| 20260505171532 | 75 | 173 | 13.0 | 25.0 | 0.00 | 0.00 | 0.00 | 40 | 1010.8 |